Weather History for KDTW - June, 2013

Change the Weather History Date:

Wednesday, June 12, 2013

  Actual Average Record
Temperature  
Mean Temperature 70 °F 69 °F  
Max Temperature 76 °F 79 °F 94 °F (1956)
Min Temperature 64 °F 59 °F 42 °F (1906)
Degree Days  
Heating Degree Days 0 1  
Month to date heating degree days 21 24  
Since 1 June heating degree days 21 24  
Since 1 July heating degree days 5927 6126  
Cooling Degree Days 5 5  
Month to date cooling degree days 27 46  
Year to date cooling degree days 130 94  
Since 1 June cooling degree days 27 46  
Growing Degree Days 20 (Base 50)    
Moisture  
Dew Point 64 °F    
Average Humidity 78    
Maximum Humidity 87    
Minimum Humidity 68    
Precipitation  
Precipitation 0.49 in 0.12 in 0.68 in (2003)
Month to date precipitation 1.11 1.45  
Year to date precipitation 15.96 13.99  
Snow  
Snow 0.00 in 0.00 in 0.00 in ()
Month to date snowfall 0.0 0.0  
Since 1 June snowfall 0.0 0.0  
Since 1 July snowfall 47.7 42.5  
Snow Depth 0.00 in    
Sea Level Pressure  
Sea Level Pressure 29.81 in    
Wind  
Wind Speed 5 mph (East)    
Max Wind Speed 16 mph    
Max Gust Speed 22 mph    
Visibility 7 miles    
Events Rain , Thunderstorm    
T = Trace of Precipitation, MM = Missing Value Source: NWS Daily Summary

Daily Weather History Graph

Daily Weather History Graph

Search for Another Location

Airport or City:

Trip Planner

Search our weather history database for the weather conditions in past years. The results will help you decide how hot, cold, wet, or windy it might be!

Date:

Astronomy

Jun. 12, 2013 Rise Set
Actual Time 5:56 AM EDT 9:10 PM EDT
Civil Twilight 5:21 AM EDT 9:44 PM EDT
Nautical Twilight 4:37 AM EDT 10:29 PM EDT
Astronomical Twilight 3:43 AM EDT 11:23 PM EDT
Moon 9:37 AM EDT (6/12) 11:41 PM EDT (6/12)
Length of Visible Light 16h 22m
Length of Day
15h 13m
Waxing Crescent, 14% of the Moon is Illuminated
Jun 12
Waxing Crescent
Jun 16
First Quarter
Jun 23
Full
Jun 30
Last Quarter
Jul 8
New

Hourly Weather History & Observations

Time (EDT) Temp. Dew Point Humidity Pressure Visibility Wind Dir Wind Speed Gust Speed Precip Events Conditions
12:53 AM 72.0 °F 62.1 °F 71% 29.86 in 10.0 mi West 3.5 mph - N/A   Mostly Cloudy
1:53 AM 70.0 °F 60.1 °F 71% 29.86 in 10.0 mi WNW 3.5 mph - N/A   Scattered Clouds
2:53 AM 69.1 °F 60.1 °F 73% 29.86 in 10.0 mi Calm Calm - N/A   Clear
3:53 AM 66.9 °F 60.1 °F 79% 29.86 in 8.0 mi SW 4.6 mph - N/A   Partly Cloudy
4:53 AM 64.9 °F 60.1 °F 84% 29.88 in 7.0 mi WSW 4.6 mph - N/A   Scattered Clouds
5:53 AM 64.9 °F 60.1 °F 84% 29.90 in 7.0 mi West 4.6 mph - N/A   Mostly Cloudy
6:53 AM 68.0 °F 61.0 °F 78% 29.89 in 10.0 mi Calm Calm - N/A   Mostly Cloudy
7:53 AM 70.0 °F 61.0 °F 73% 29.90 in 10.0 mi Calm Calm - N/A   Mostly Cloudy
8:53 AM 73.0 °F 62.1 °F 68% 29.89 in 10.0 mi Calm Calm - N/A   Mostly Cloudy
9:53 AM 72.0 °F 63.0 °F 73% 29.91 in 10.0 mi SSE 3.5 mph - N/A   Overcast
10:53 AM 72.0 °F 63.0 °F 73% 29.90 in 10.0 mi SSE 3.5 mph - 0.00 in   Overcast
11:53 AM 73.0 °F 63.0 °F 71% 29.94 in 10.0 mi West 3.5 mph - N/A   Overcast
12:53 PM 73.0 °F 64.9 °F 76% 29.84 in 10.0 mi ENE 5.8 mph - 0.01 in   Overcast
1:53 PM 73.0 °F 64.0 °F 73% 29.85 in 10.0 mi South 9.2 mph - N/A   Overcast
2:53 PM 73.9 °F 64.0 °F 71% 29.87 in 10.0 mi South 8.1 mph - 0.00 in   Overcast
3:53 PM 75.0 °F 64.0 °F 69% 29.81 in 10.0 mi East 6.9 mph - N/A   Overcast
4:53 PM 75.9 °F 64.9 °F 69% 29.82 in 10.0 mi ENE 3.5 mph - N/A   Overcast
5:53 PM 75.0 °F 64.9 °F 71% 29.83 in 9.0 mi North 5.8 mph - N/A   Overcast
6:53 PM 73.9 °F 66.0 °F 76% 29.80 in 7.0 mi ENE 5.8 mph - 0.00 in Rain Light Rain
7:53 PM 73.0 °F 64.9 °F 76% 29.77 in 7.0 mi ENE 4.6 mph - 0.00 in   Overcast
8:30 PM 71.6 °F 66.2 °F 83% 29.77 in 3.0 mi Calm Calm - 0.01 in Rain , Thunderstorm Thunderstorms and Rain
8:37 PM 69.8 °F 66.2 °F 88% 29.78 in 2.0 mi NNE 3.5 mph - 0.06 in Rain , Thunderstorm Heavy Thunderstorms and Rain
8:49 PM 69.8 °F 66.2 °F 88% 29.77 in 1.5 mi NE 6.9 mph - 0.11 in Rain , Thunderstorm Heavy Thunderstorms and Rain
8:53 PM 71.1 °F 66.0 °F 84% 29.75 in 1.5 mi Variable 5.8 mph - 0.11 in Rain , Thunderstorm Heavy Thunderstorms and Rain
8:58 PM 69.8 °F 66.2 °F 88% 29.77 in 2.0 mi East 6.9 mph - 0.00 in Rain , Thunderstorm Light Thunderstorms and Rain
9:10 PM 69.8 °F 66.2 °F 88% 29.76 in 3.0 mi SE 8.1 mph - 0.00 in Thunderstorm Overcast
9:14 PM 69.8 °F 66.2 °F 88% 29.75 in 3.0 mi SE 5.8 mph - 0.00 in   Overcast
9:41 PM 69.8 °F 66.2 °F 88% 29.76 in 3.0 mi ENE 4.6 mph - 0.00 in   Overcast
9:53 PM 69.1 °F 66.0 °F 90% 29.75 in 3.0 mi NNE 4.6 mph - 0.00 in   Overcast
10:53 PM 68.0 °F 64.9 °F 90% 29.69 in 5.0 mi ENE 6.9 mph - N/A   Overcast
11:20 PM 68.0 °F 64.4 °F 88% 29.68 in 5.0 mi ENE 6.9 mph - N/A Thunderstorm Overcast
11:42 PM 68.0 °F 64.4 °F 88% 29.68 in 6.0 mi East 4.6 mph - N/A   Overcast
11:53 PM 66.9 °F 64.0 °F 90% 29.65 in 6.0 mi East 5.8 mph - 0.00 in Rain Light Rain
11:57 PM 66.2 °F 64.4 °F 94% 29.67 in 5.0 mi Variable 3.5 mph - 0.00 in Rain , Thunderstorm Light Thunderstorms and Rain